DW7251 Weather Reports


Display with metric or nautical units.
time (UTC)temp
F
wind
direction
speed
MPH
gust
MPH
rain 1hr
in
rain 24hr
in
rain mn
in
humidity
%
barometer
mb
20260503043054 64 270 2.0 5.0 0.00 0.27 0.27 83 1009.3
20260503042604 65 287 2.0 11.0 0.00 0.27 0.27 83 1009.2
20260503042100 65 292 3.0 11.0 0.00 0.27 0.27 82 1009.3
20260503041606 66 286 4.0 11.0 0.00 0.27 0.27 81 1009.2
20260503040449 68 356 4.0 14.0 0.00 0.27 0.27 81 1009.1
20260503035958 68 320 5.0 14.0 0.00 0.27 0.27 80 1009.1
20260503035440 68 22 5.0 14.0 0.00 0.27 0.27 79 1009.0
20260503034932 68 255 4.0 14.0 0.00 0.27 0.27 78 1008.9
20260503034420 69 343 3.0 8.0 0.00 0.27 0.27 78 1008.7
20260503033917 69 302 3.0 9.0 0.00 0.27 0.27 78 1008.8
20260503032758 69 359 3.0 9.0 0.00 0.27 0.27 78 1008.9
20260503032253 69 35 4.0 16.0 0.00 0.27 0.27 78 1008.9
20260503031745 69 37 5.0 16.0 0.00 0.27 0.27 78 1009.1
20260503031255 69 315 5.0 16.0 0.00 0.27 0.27 77 1009.0
20260503023554 69 51 5.0 14.0 0.00 0.27 0.27 81 1009.2
20260503023043 69 319 4.0 13.0 0.00 0.27 0.27 83 1009.2
20260503022546 68 340 5.0 13.0 0.00 0.27 0.27 83 1009.2
20260503022028 68 36 5.0 12.0 0.00 0.27 0.27 84 1009.1
20260503020846 67 81 3.0 10.0 0.00 0.26 0.26 88 1009.3
20260503020355 66 319 3.0 10.0 0.00 0.26 0.26 88 1009.4
20260503014618 64 21 4.0 15.0 0.00 0.26 0.26 88 1009.3
20260503014103 64 2 3.0 9.0 0.00 0.26 0.26 88 1009.2
20260503013612 64 334 3.0 13.0 0.00 0.26 0.26 88 1009.0
20260503012459 64 54 4.0 14.0 0.05 0.26 0.26 87 1008.9
20260503011947 65 345 4.0 14.0 0.07 0.26 0.26 87 1009.2
20260503011457 65 28 5.0 14.0 0.08 0.25 0.25 87 1009.4
20260503010945 65 312 5.0 14.0 0.10 0.25 0.25 87 1009.3
20260503005758 65 84 6.0 17.0 0.00 0.22 0.22 87 1009.2
20260503005247 65 56 5.0 17.0 0.03 0.22 0.22 87 1009.3
20260503004755 65 12 5.0 17.0 0.04 0.22 0.22 87 1009.4
20260503004248 65 3 6.0 17.0 0.11 0.22 0.22 87 1009.2
20260503003752 65 61 6.0 13.0 0.12 0.22 0.22 87 1009.6
20260503003253 65 49 5.0 14.0 0.25 0.20 0.21 86 1009.7
20260503002756 65 2 5.0 14.0 0.27 0.18 0.18 86 1009.5
20260503002258 66 45 4.0 14.0 0.20 0.14 0.14 84 1009.8
20260503001748 66 45 4.0 14.0 0.20 0.14 0.14 84 1009.8
20260503001236 66 24 5.0 13.0 0.25 0.12 0.12 83 1010.1
20260503000718 66 356 5.0 13.0 0.33 0.10 0.10 82 1010.2
20260503000204 67 85 4.0 17.0 0.25 0.07 0.07 81 1010.4
20260502235710 67 350 4.0 17.0 0.22 0.05 0.05 80 1010.2
20260502235202 67 347 5.0 17.0 0.21 0.03 0.03 79 1010.3
20260502233358 69 336 6.0 14.0 0.00 0.00 0.00 76 1010.2
20260502232900 69 66 5.0 14.0 0.00 0.00 0.00 75 1009.8
20260502231738 70 16 5.0 20.0 0.00 0.00 0.00 73 1010.0
20260502231232 70 334 7.0 20.0 0.00 0.00 0.00 73 1010.2
20260502230733 69 323 8.0 20.0 0.00 0.00 0.00 73 1010.3
20260502230231 69 11 9.0 20.0 0.00 0.00 0.00 74 1010.4
20260502225740 69 42 8.0 19.0 0.00 0.00 0.00 74 1010.3
20260502225225 69 357 7.0 19.0 0.00 0.00 0.00 74 1010.0
20260502224730 69 3 7.0 19.0 0.00 0.00 0.00 74 1009.7
20260502224211 69 9 7.0 17.0 0.00 0.00 0.00 75 1009.4
20260502223039 68 3 5.0 15.0 0.00 0.00 0.00 76 1009.5
20260502222525 68 55 6.0 15.0 0.00 0.00 0.00 76 1009.4
20260502220809 67 33 6.0 16.0 0.00 0.00 0.00 77 1010.0
20260502220251 67 41 5.0 14.0 0.00 0.00 0.00 77 1010.0
20260502215056 67 23 3.0 12.0 0.00 0.00 0.00 76 1010.4
20260502213925 67 326 4.0 13.0 0.00 0.00 0.00 75 1010.5
20260502213420 67 359 5.0 13.0 0.00 0.00 0.00 75 1010.4
20260502212906 67 48 5.0 16.0 0.00 0.00 0.00 75 1010.4
20260502212408 67 54 5.0 16.0 0.00 0.00 0.00 75 1010.2
20260502211852 67 341 6.0 16.0 0.00 0.00 0.00 75 1010.2
20260502211338 67 308 7.0 16.0 0.00 0.00 0.00 75 1010.3
20260502210210 68 58 6.0 22.0 0.00 0.00 0.00 75 1010.2
20260502205652 68 11 6.0 22.0 0.00 0.00 0.00 75 1010.1
20260502204502 68 82 7.0 14.0 0.00 0.00 0.00 74 1010.7
20260502204004 68 76 6.0 18.0 0.00 0.00 0.00 74 1010.9
20260502203458 68 6 6.0 18.0 0.00 0.00 0.00 74 1011.0
20260502202941 68 89 8.0 18.0 0.00 0.00 0.00 73 1011.0
20260502202448 69 37 8.0 18.0 0.00 0.00 0.00 72 1011.1
20260502201316 69 206 7.0 16.0 0.00 0.00 0.00 71 1011.3
20260502200815 69 279 6.0 21.0 0.00 0.00 0.00 71 1011.3
20260502200314 69 7 6.0 21.0 0.00 0.00 0.00 71 1011.3
20260502195820 69 244 6.0 21.0 0.00 0.00 0.00 71 1011.3
20260502195305 69 354 7.0 21.0 0.00 0.00 0.00 71 1011.1
20260502194804 69 11 7.0 17.0 0.00 0.00 0.00 70 1010.6
20260502194308 69 11 7.0 17.0 0.00 0.00 0.00 70 1010.6
20260502193136 69 31 7.0 20.0 0.00 0.00 0.00 69 1010.9
20260502192639 69 30 7.0 21.0 0.00 0.00 0.00 69 1010.8
20260502192145 69 72 7.0 21.0 0.00 0.00 0.00 69 1010.7
20260502191637 69 343 7.0 21.0 0.00 0.00 0.00 69 1010.8
20260502191135 69 57 7.0 21.0 0.00 0.00 0.00 69 1010.7
20260502190009 69 286 7.0 19.0 0.00 0.00 0.00 68 1010.4
20260502184835 70 60 7.0 19.0 0.00 0.00 0.00 68 1010.3
20260502184320 70 341 8.0 19.0 0.00 0.00 0.00 67 1010.3
20260502183827 70 358 6.0 16.0 0.00 0.00 0.00 66 1010.5
20260502183334 70 322 6.0 19.0 0.00 0.00 0.00 65 1010.3
20260502182831 70 324 7.0 19.0 0.00 0.00 0.00 65 1010.4
20260502182326 71 29 6.0 19.0 0.00 0.00 0.00 64 1010.3
20260502181823 71 74 6.0 19.0 0.00 0.00 0.00 64 1010.4
20260502181323 71 54 6.0 18.0 0.00 0.00 0.00 64 1010.5
20260502180157 70 297 3.0 11.0 0.00 0.00 0.00 64 1010.7
20260502170438 71 48 2.0 6.0 0.00 0.00 0.00 61 1011.3
20260502163627 70 60 1.0 8.0 0.00 0.00 0.00 61 1011.3
20260502163116 70 33 1.0 8.0 0.00 0.00 0.00 61 1011.4
20260502162601 70 8 1.0 8.0 0.00 0.00 0.00 62 1011.6
20260502162108 70 0 0.0 4.0 0.00 0.00 0.00 62 1011.7
20260502161602 70 11 0.0 4.0 0.00 0.00 0.00 62 1011.7
20260502161052 70 41 1.0 4.0 0.00 0.00 0.00 62 1011.7
20260502160549 70 356 0.0 4.0 0.00 0.00 0.00 62 1011.7
20260502151937 70 11 1.0 5.0 0.00 0.00 0.00 61 1012.0
20260502150752 70 326 0.0 3.0 0.00 0.00 0.00 60 1011.9
20260502150237 70 33 0.0 0.0 0.00 0.00 0.00 60 1012.0
20260502130522 72 11 1.0 6.0 0.00 0.00 0.00 53 1013.0
20260502123431 71 352 2.0 8.0 0.00 0.00 0.00 54 1013.2
20260502122921 71 324 2.0 8.0 0.00 0.00 0.00 56 1013.3
20260502121807 70 337 0.0 5.0 0.00 0.00 0.00 58 1013.4
20260502121252 70 11 0.0 0.0 0.00 0.00 0.00 59 1013.4
20260502120755 70 2 0.0 0.0 0.00 0.00 0.00 60 1013.4
20260502120241 70 322 0.0 0.0 0.00 0.00 0.00 60 1013.5
20260502114531 72 349 0.0 5.0 0.00 0.00 0.00 57 1013.6
20260502113411 72 342 1.0 5.0 0.00 0.00 0.00 56 1013.2
20260502112853 72 342 1.0 5.0 0.00 0.00 0.00 56 1013.2
20260502111116 72 350 1.0 6.0 0.00 0.00 0.00 56 1013.4
20260502110613 72 29 1.0 5.0 0.00 0.00 0.00 56 1013.5
20260502110105 72 18 2.0 5.0 0.00 0.00 0.00 56 1013.5
20260502105559 72 357 1.0 5.0 0.00 0.00 0.00 56 1013.4
20260502105045 72 319 1.0 5.0 0.00 0.00 0.00 56 1013.4
20260502104126 72 18 1.0 6.0 0.00 0.00 0.00 56 1013.4
20260502102958 72 56 1.0 8.0 0.00 0.00 0.00 55 1013.4
20260502102452 72 348 2.0 8.0 0.00 0.00 0.00 55 1013.4
20260502101941 72 58 2.0 8.0 0.00 0.00 0.00 55 1013.4
20260502101440 72 37 2.0 8.0 0.00 0.00 0.00 55 1013.4
20260502100323 72 41 1.0 4.0 0.00 0.00 0.00 55 1013.4
20260502091517 73 34 0.0 2.0 0.00 0.00 0.00 53 1013.6
20260502091012 73 32 0.0 0.0 0.00 0.00 0.00 52 1013.6
20260502090457 73 32 0.0 0.0 0.00 0.00 0.00 52 1013.7
20260502071219 76 316 2.0 8.0 0.00 0.00 0.00 49 1013.3
20260502070709 76 56 2.0 8.0 0.00 0.00 0.00 49 1013.2
20260502070154 76 49 3.0 12.0 0.00 0.00 0.00 49 1013.2
20260502065644 76 35 4.0 12.0 0.00 0.00 0.00 49 1013.2
20260502065144 76 340 4.0 12.0 0.00 0.00 0.00 48 1013.1
20260502064632 76 289 3.0 12.0 0.00 0.00 0.00 48 1013.1
20260502063456 76 21 4.0 12.0 0.00 0.00 0.00 48 1013.1
20260502062324 77 40 4.0 15.0 0.00 0.00 0.00 47 1013.1
20260502061814 77 21 4.0 15.0 0.00 0.00 0.00 46 1013.1
20260502061258 77 13 4.0 15.0 0.00 0.00 0.00 46 1013.2
20260502060745 77 18 3.0 10.0 0.00 0.00 0.00 47 1013.1
20260502060255 77 343 3.0 10.0 0.00 0.00 0.00 47 1013.2
20260502055741 77 317 4.0 10.0 0.00 0.00 0.00 47 1013.3
20260502055234 77 80 3.0 10.0 0.00 0.00 0.00 47 1013.3
20260502054723 77 49 3.0 10.0 0.00 0.00 0.00 47 1013.4
20260502054220 77 67 3.0 10.0 0.00 0.00 0.00 46 1013.5
20260502053720 77 333 3.0 10.0 0.00 0.00 0.00 47 1013.5
20260502053216 77 66 3.0 10.0 0.00 0.00 0.00 47 1013.5
20260502052106 76 23 3.0 8.0 0.00 0.00 0.00 49 1013.5
20260502050953 76 57 3.0 9.0 0.00 0.00 0.00 49 1013.6
20260502045819 76 323 4.0 12.0 0.00 0.00 0.00 49 1013.7
20260502045306 76 59 4.0 12.0 0.00 0.00 0.00 49 1013.7
20260502044801 76 322 3.0 12.0 0.00 0.00 0.00 49 1013.8
20260502044310 76 1 3.0 10.0 0.00 0.00 0.00 50 1013.8
20260502043802 76 334 3.0 10.0 0.00 0.00 0.00 49 1013.9